This is the latest recevied weather packets stored in our database for station/object KY0TEQ-13. If no packets are shown the sender has not sent any weather packets the latest 10 day(s).
| Time | Temp. | Humidity | Pressure | Rain* | Wind** | Luminosity | Snow |
|---|---|---|---|---|---|---|---|
| 1777262871 | 6.11° C | 61% | 1296.2 hPa | 0 mm | - | 0 W/m² | - |
| 1777262568 | 6.11° C | 61% | 1296.2 hPa | 0 mm | - | 0 W/m² | - |
| 1777262264 | 6.11° C | 61% | 1296 hPa | 0 mm | - | 0 W/m² | - |
| 1777261961 | 6.11° C | 61% | 1295.6 hPa | 0 mm | - | 0 W/m² | - |
| 1777261657 | 6.11° C | 61% | 1295.7 hPa | 0 mm | - | 0 W/m² | - |
| 1777261354 | 6.11° C | 61% | 1295.9 hPa | 0 mm | - | 0 W/m² | - |
| 1777261052 | 6.11° C | 60% | 1295.6 hPa | 0 mm | - | 0 W/m² | - |
| 1777260750 | 6.11° C | 60% | 1295.7 hPa | 0 mm | - | 0 W/m² | - |
| 1777260446 | 6.11° C | 60% | 1295.6 hPa | 0 mm | - | 0 W/m² | - |
| 1777260141 | 6.67° C | 58% | 1295.5 hPa | 0 mm | - | 0 W/m² | - |
| 1777259839 | 6.67° C | 57% | 1295.5 hPa | 0 mm | - | 0 W/m² | - |
| 1777259535 | 6.67° C | 56% | 1295.5 hPa | 0 mm | - | 0 W/m² | - |
| 1777259233 | 6.67° C | 56% | 1295.1 hPa | 0 mm | - | 0 W/m² | - |
| 1777258930 | 6.67° C | 56% | 1295 hPa | 0 mm | - | 0 W/m² | - |
| 1777258627 | 6.67° C | 56% | 1294.9 hPa | 0 mm | - | 0 W/m² | - |
| 1777258021 | 6.67° C | 59% | 1294.8 hPa | 0 mm | - | 0 W/m² | - |
| 1777256809 | 7.22° C | 55% | 1294.5 hPa | 0 mm | - | 0 W/m² | - |
| 1777256505 | 7.22° C | 55% | 1294.4 hPa | 0 mm | - | 0 W/m² | - |
| 1777256200 | 7.22° C | 57% | 1294.4 hPa | 0 mm | - | 0 W/m² | - |
| 1777255593 | 7.78° C | 54% | 1294.2 hPa | 0 mm | - | 1 W/m² | - |
* Rain latest hour (hover to see other rain measurements)
** Current wind speed in m/s (hover to see current wind gust speed)